Waynesville-St. Robert Regional Forney field Fort Leonard Wood US
ICAO: KTBN
IATA: TBN
Category: Medium
Scheduled Services: Yes

Elevation: 1159 ft
TransAlt. 18000 ft.

Airport Communications:
ATIS:118.7
KANSAS CITY CNTR:133.8
CTAF:125.4
FORNEY TWR:125.4

KTBN Zoom In..

If you have problems with the map follow the link
https://www.worldairports.se/pages/airport.php?
ICAO=KTBN

Runways:

(A) RW 14 length 6038 ft width 150 ft
ILS 110.90 / hdg 144

(B) RW 32 length 6038 ft width 150 ft
---- / hdg 324

Location; KTBN
Day. 08 / Time. 04.56 Zulu
* Altimeter: 30.10
* Temperature: 02° c. 35.6°f.
* Wind from: KTB° Speed N kn.
Dewpoint: -02° c.
Visibility: 10 Statute Miles.
Clouds: Clear (automated report).

KTBN 080456Z AUTO 13008KT 10SM CLR 02/M02 A3010 RMK AO2 SLP203 T00201018 $


Wind From KTB°
Speed N kn.

 
 
jpsmedia worldairports.se 2019   terms of use